{"data":{"norad_id":60340,"epoch":"2026-09-21T08:04:20.737632Z","epoch_age_seconds":113245,"freshness":"FRESH","line1":"1 60340U 24136M   26264.33635113 -.00000007  00000+0  10933-4 0  9991","line2":"2 60340  53.1595 245.8636 0001444  96.5786 263.5381 15.34389396120801","mean_motion":15.34389396,"eccentricity":0.0001444,"inclination_deg":53.1595,"raan_deg":245.8636,"arg_perigee_deg":96.5786,"mean_anomaly_deg":263.5381,"bstar":1.0933e-5,"rev_number":12080,"period_min":93.848406653092,"perigee_km":461.74693582949,"apogee_km":463.72257959312,"semimajor_km":6840.8717577113,"source":"CELESTRAK","updated_at":"2026-09-22T09:00:49.220798Z"}}